Weather History for Greenville Downtown, SC

Change the Weather History Date:

Thursday, December 5, 2013

  Actual Average Record
Temperature  
Mean Temperature 64 °F -  
Max Temperature 69 °F 54 °F 73 °F (1998)
Min Temperature 60 °F 37 °F 25 °F (2000)
Growing Degree Days 14 (Base 50)    
Moisture  
Dew Point 62 °F    
Average Humidity 93    
Maximum Humidity 100    
Minimum Humidity 88    
Precipitation  
Precipitation 0.24 in - - ()
Sea Level Pressure  
Sea Level Pressure 30.06 in    
Wind  
Wind Speed 6 mph (SSW)    
Max Wind Speed 14 mph    
Max Gust Speed 22 mph    
Visibility 6 miles    
Events Fog , Rain    
Averages and records for this station are not official NWS values.
T = Trace of Precipitation, MM = Missing Value Source: NWS Daily Summary

Daily Weather History Graph

Daily Weather History Graph

Search for Another Location

Airport:

Trip Planner

Search our weather history database for the weather conditions in past years. The results will help you decide how hot, cold, wet, or windy it might be!

Date:

Astronomy

Dec. 05, 2013 Rise Set
Actual Time 7:22 AM EST 5:17 PM EST
Civil Twilight 6:54 AM EST 5:45 PM EST
Nautical Twilight 6:23 AM EST 6:17 PM EST
Astronomical Twilight 5:52 AM EST 6:47 PM EST
Moon 9:44 AM EST (12/5) 8:33 PM EST (12/5)
Length of Visible Light 10h 51m
Length of Day
9h 55m
Waxing Crescent, 10% of the Moon is Illuminated
Dec 5
Waxing Crescent
Dec 9
First Quarter
Dec 17
Full
Dec 25
Last Quarter
Jan 1
New

Hourly Weather History & Observations

Time (EST) Temp. Dew Point Humidity Pressure Visibility Wind Dir Wind Speed Gust Speed Precip Events Conditions
12:22 AM 60.8 °F 60.8 °F 100% 30.08 in 0.2 mi SSE 4.6 mph - N/A Fog Fog
12:53 AM 61.0 °F 60.1 °F 97% 30.07 in 0.2 mi Calm Calm - 0.01 in Fog , Rain Light Rain
1:00 AM 60.8 °F 59.0 °F 94% 30.08 in 0.5 mi Calm Calm - 0.02 in Fog , Rain Heavy Rain
1:14 AM 60.8 °F 59.0 °F 94% 30.08 in 1.5 mi Calm Calm - 0.03 in Rain Light Rain
1:25 AM 60.8 °F 59.0 °F 94% 30.08 in 3.0 mi SE 3.5 mph - 0.03 in Rain Light Rain
1:39 AM 60.8 °F 59.0 °F 94% 30.07 in 2.0 mi SE 3.5 mph - 0.05 in Rain Light Rain
1:53 AM 61.0 °F 59.0 °F 93% 30.06 in 3.0 mi SSE 5.8 mph - 0.06 in Rain Light Rain
2:53 AM 61.0 °F 59.0 °F 93% 30.05 in 7.0 mi South 9.2 mph - 0.00 in   Overcast
3:49 AM 60.8 °F 60.8 °F 100% 30.06 in 4.0 mi South 8.1 mph - N/A   Overcast
3:53 AM 61.0 °F 60.1 °F 97% 30.05 in 4.0 mi South 8.1 mph - N/A   Overcast
4:53 AM 62.1 °F 61.0 °F 96% 30.05 in 6.0 mi SSW 9.2 mph - 0.00 in Rain Light Rain
5:17 AM 62.6 °F 60.8 °F 94% 30.07 in 8.0 mi SSW 6.9 mph - 0.00 in   Overcast
5:53 AM 63.0 °F 61.0 °F 93% 30.06 in 8.0 mi SSW 8.1 mph - 0.00 in   Overcast
6:53 AM 62.1 °F 61.0 °F 96% 30.07 in 5.0 mi SSW 6.9 mph - 0.01 in Rain Light Rain
7:05 AM 62.6 °F 60.8 °F 94% 30.09 in 2.0 mi SSW 4.6 mph - 0.01 in Rain Light Rain
7:19 AM 62.6 °F 60.8 °F 94% 30.09 in 4.0 mi SW 3.5 mph - 0.01 in Rain Light Rain
7:53 AM 62.1 °F 61.0 °F 96% 30.09 in 4.0 mi SSW 3.5 mph - 0.01 in   Overcast
8:53 AM 63.0 °F 61.0 °F 93% 30.10 in 4.0 mi SSW 5.8 mph - 0.01 in Rain Light Rain
9:51 AM 62.6 °F 60.8 °F 94% 30.12 in 1.8 mi SSW 9.2 mph - 0.00 in   Overcast
9:53 AM 63.0 °F 61.0 °F 93% 30.11 in 1.5 mi SSW 6.9 mph - 0.00 in   Overcast
10:53 AM 64.0 °F 62.1 °F 93% 30.11 in 2.0 mi SSW 9.2 mph - N/A   Overcast
11:13 AM 64.4 °F 62.6 °F 94% 30.12 in 3.0 mi SW 6.9 mph - N/A   Overcast
11:53 AM 64.9 °F 62.1 °F 90% 30.09 in 3.0 mi SW 8.1 mph - 0.02 in Rain Light Rain
12:53 PM 64.9 °F 63.0 °F 93% 30.06 in 9.0 mi SSW 6.9 mph - 0.03 in Rain Light Rain
1:53 PM 66.0 °F 63.0 °F 90% 30.04 in 8.0 mi SSW 4.6 mph - N/A   Overcast
2:53 PM 66.0 °F 63.0 °F 90% 30.03 in 10.0 mi SW 6.9 mph - N/A   Overcast
3:53 PM 66.9 °F 64.0 °F 90% 30.02 in 10.0 mi SSW 8.1 mph - 0.00 in   Overcast
4:53 PM 66.9 °F 64.0 °F 90% 30.03 in 10.0 mi South 6.9 mph - N/A   Overcast
5:53 PM 66.0 °F 64.0 °F 93% 30.04 in 10.0 mi South 6.9 mph - N/A   Overcast
6:53 PM 66.0 °F 64.0 °F 93% 30.04 in 10.0 mi South 5.8 mph - N/A   Overcast
7:29 PM 66.2 °F 64.4 °F 94% 30.04 in 4.0 mi SSE 9.2 mph - 0.03 in Rain Rain
7:53 PM 66.0 °F 64.0 °F 93% 30.03 in 6.0 mi South 12.7 mph - 0.04 in   Overcast
8:53 PM 66.9 °F 64.9 °F 93% 30.01 in 8.0 mi South 13.8 mph - 0.00 in   Overcast
9:53 PM 68.0 °F 64.9 °F 90% 30.01 in 10.0 mi SSW 13.8 mph 21.9 mph 0.00 in Rain Light Rain
10:53 PM 69.1 °F 66.0 °F 90% 30.02 in 10.0 mi South 10.4 mph 19.6 mph 0.00 in   Overcast
11:34 PM 68.0 °F 64.4 °F 88% 30.04 in 10.0 mi SSW 12.7 mph - 0.05 in Rain Light Rain
11:45 PM 68.0 °F 64.4 °F 88% 30.04 in 10.0 mi SSW 9.2 mph - 0.05 in Rain Light Rain
11:53 PM 68.0 °F 64.9 °F 90% 30.02 in 10.0 mi South 11.5 mph 21.9 mph 0.05 in Rain Light Rain